Tracking 29594 objects as of 20-Sep-2024
HD Live streaming from Space Station
objects crossing your sky now

STARLINK-5199

Track STARLINK-5199 now!
10-day predictions
STARLINK-5199 is classified as:


NORAD ID: 54201
Int'l Code: 2022-141AW
Perigee: 545.8 km
Apogee: 547.9 km
Inclination: 53.2 °
Period: 95.4 minutes
Semi major axis: 6917 km
RCS: Unknown
Launch date: October 28, 2022
Source: United States (US)
Launch site: AIR FORCE WESTERN TEST RANGE (AFWTR)
Your satellite tracking list
Your tracking list is empty




NASA's NSSDC Master Catalog

Two Line Element Set (TLE):
1 54201U 22141AW  24264.30952900  .00001209  00000-0  94049-4 0  9990
2 54201  53.2159 237.5308 0001545  92.0101 268.1069 15.08843353105171
Source of the keplerian elements: AFSPC